Rugby, ND

2:31 AM CST on December 06, 2019 (GMT -0600)
Rugby Municipal

Weather History for KRUG - October, 2019

Change the Weather History Date:

Sunday, October 27, 2019

  Actual Average Record
Temperature  
Mean Temperature 26 °F -  
Max Temperature 32 °F 52 °F 76 °F (1990)
Min Temperature 21 °F 28 °F 10 °F (2017)
Degree Days  
Heating Degree Days 38    
Moisture  
Dew Point 19 °F    
Average Humidity 74    
Maximum Humidity 86    
Minimum Humidity 59    
Precipitation  
Precipitation 0.00 in - - ()
Sea Level Pressure  
Sea Level Pressure 30.02 in    
Wind  
Wind Speed 20 mph (WNW)    
Max Wind Speed 25 mph    
Max Gust Speed 33 mph    
Visibility 10 miles    
Events Snow    
Averages and records for this station are not official NWS values.
T = Trace of Precipitation, MM = Missing Value Source: NWS Daily Summary

Daily Weather History Graph

Daily Weather History Graph

Search for Another Location

Airport or City:

Astronomy

Oct. 27, 2019 Rise Set
Actual Time 8:17 AM CDT 6:29 PM CDT
Civil Twilight 7:45 AM CDT 7:01 PM CDT
Nautical Twilight 7:08 AM CDT 7:38 PM CDT
Astronomical Twilight 6:32 AM CDT 8:14 PM CDT
Moon 7:20 AM CDT (10/27) 6:45 PM CDT (10/27)
Length of Visible Light 11h 16m
Length of Day
10h 11m
Waning Crescent, 0% of the Moon is Illuminated
Oct 27
Waning Crescent
Oct 27
New
Nov 4
First Quarter
Nov 12
Full
Nov 19
Last Quarter

Hourly Weather History & Observations

Time (CDT) Temp. Windchill Dew Point Humidity Pressure Visibility Wind Dir Wind Speed Gust Speed Precip Events Conditions
12:15 AM 32.0 °F 20.8 °F 26.6 °F 80% 29.91 in 10.0 mi NW 17.3 mph 27.6 mph N/A   Overcast
12:35 AM 32.0 °F 19.8 °F 26.6 °F 80% 29.92 in 10.0 mi NW 20.7 mph - N/A   Overcast
12:55 AM 32.0 °F 21.6 °F 26.6 °F 80% 29.93 in 10.0 mi NW 15.0 mph 23.0 mph N/A   Overcast
1:15 AM 32.0 °F 19.5 °F 24.8 °F 75% 29.94 in 10.0 mi NW 21.9 mph - N/A   Overcast
1:35 AM 32.0 °F 21.2 °F 26.6 °F 80% 29.95 in 10.0 mi NW 16.1 mph 21.9 mph N/A   Overcast
1:55 AM 32.0 °F 20.5 °F 26.6 °F 80% 29.96 in 10.0 mi NW 18.4 mph 24.2 mph N/A   Overcast
2:15 AM 32.0 °F 20.5 °F 26.6 °F 80% 29.96 in 10.0 mi WNW 18.4 mph 27.6 mph N/A   Unknown
2:35 AM 30.2 °F 16.2 °F 26.6 °F 86% 29.96 in 10.0 mi NW 25.3 mph - N/A   Unknown
2:55 AM 30.2 °F 17.8 °F 26.6 °F 86% 29.97 in 10.0 mi NW 19.6 mph 26.5 mph N/A   Overcast
3:15 AM 30.2 °F 17.8 °F 24.8 °F 80% 29.98 in 10.0 mi NW 19.6 mph - N/A   Overcast
3:35 AM 30.2 °F 17.8 °F 24.8 °F 80% 29.98 in 10.0 mi NW 19.6 mph 25.3 mph N/A   Overcast
3:55 AM 30.2 °F 17.4 °F 24.8 °F 80% 29.98 in 10.0 mi NW 20.7 mph - N/A   Overcast
4:15 AM 30.2 °F 16.5 °F 23.0 °F 75% 29.98 in 10.0 mi NW 24.2 mph 29.9 mph N/A   Overcast
4:35 AM 28.4 °F 15.8 °F 23.0 °F 80% 29.99 in 10.0 mi NW 18.4 mph 24.2 mph N/A   Overcast
4:55 AM 28.4 °F 15.8 °F 23.0 °F 80% 29.99 in 10.0 mi NW 18.4 mph - N/A   Overcast
5:15 AM 28.4 °F 16.6 °F 24.8 °F 86% 29.99 in 10.0 mi WNW 16.1 mph - N/A   Overcast
5:35 AM 28.4 °F 15.8 °F 24.8 °F 86% 29.99 in 10.0 mi WNW 18.4 mph - N/A   Overcast
5:55 AM 28.4 °F 16.2 °F 24.8 °F 86% 30.00 in 10.0 mi WNW 17.3 mph 25.3 mph N/A   Overcast
6:15 AM 28.4 °F 15.1 °F 23.0 °F 80% 29.99 in 10.0 mi WNW 20.7 mph - N/A   Overcast
6:35 AM 28.4 °F 15.4 °F 23.0 °F 80% 30.00 in 10.0 mi WNW 19.6 mph 28.8 mph N/A   Overcast
6:55 AM 28.4 °F 14.7 °F 23.0 °F 80% 30.00 in 10.0 mi WNW 21.9 mph - N/A   Unknown
7:15 AM 28.4 °F 15.8 °F 23.0 °F 80% 30.00 in 10.0 mi WNW 18.4 mph 26.5 mph N/A   Unknown
7:35 AM 26.6 °F 13.4 °F 23.0 °F 86% 30.00 in 10.0 mi WNW 18.4 mph 25.3 mph N/A   Unknown
7:55 AM 26.6 °F 13.1 °F 21.2 °F 80% 30.01 in 10.0 mi WNW 19.6 mph 25.3 mph N/A   Unknown
8:15 AM 26.6 °F 12.7 °F 21.2 °F 80% 30.02 in 10.0 mi WNW 20.7 mph 27.6 mph N/A   Overcast
8:35 AM 26.6 °F 12.7 °F 21.2 °F 80% 30.03 in 10.0 mi WNW 20.7 mph 28.8 mph N/A   Overcast
8:55 AM 26.6 °F 13.4 °F 21.2 °F 80% 30.03 in 9.0 mi WNW 18.4 mph 25.3 mph N/A   Overcast
9:15 AM 26.6 °F 13.1 °F 21.2 °F 80% 30.03 in 9.0 mi WNW 19.6 mph 26.5 mph N/A   Overcast
9:35 AM 26.6 °F 12.0 °F 21.2 °F 80% 30.03 in 10.0 mi WNW 23.0 mph - N/A   Overcast
9:55 AM 26.6 °F 12.0 °F 19.4 °F 74% 30.04 in 10.0 mi WNW 23.0 mph - N/A   Overcast
10:15 AM 26.6 °F 11.4 °F 19.4 °F 74% 30.04 in 10.0 mi WNW 25.3 mph - N/A   Overcast
10:35 AM 26.6 °F 13.8 °F 19.4 °F 74% 30.04 in 10.0 mi WNW 17.3 mph 27.6 mph N/A   Overcast
10:55 AM 26.6 °F 13.1 °F 19.4 °F 74% 30.05 in 10.0 mi WNW 19.6 mph 27.6 mph N/A   Overcast
11:15 AM 26.6 °F 12.4 °F 17.6 °F 69% 30.05 in 10.0 mi WNW 21.9 mph 29.9 mph N/A   Overcast
11:35 AM 26.6 °F 13.1 °F 19.4 °F 74% 30.05 in 9.0 mi WNW 19.6 mph 26.5 mph N/A   Overcast
11:55 AM 26.6 °F 13.8 °F 19.4 °F 74% 30.05 in 6.0 mi WNW 17.3 mph 27.6 mph N/A Snow Light Snow
12:15 PM 26.6 °F 13.8 °F 19.4 °F 74% 30.05 in 6.0 mi WNW 17.3 mph 26.5 mph N/A Snow Light Snow
12:35 PM 24.8 °F 11.1 °F 21.2 °F 86% 30.05 in 6.0 mi WNW 18.4 mph - N/A Snow Light Snow
12:55 PM 26.6 °F 13.1 °F 17.6 °F 69% 30.05 in 9.0 mi WNW 19.6 mph 25.3 mph N/A Snow Light Snow
1:15 PM 26.6 °F 13.4 °F 17.6 °F 69% 30.05 in 10.0 mi WNW 18.4 mph 27.6 mph N/A Snow Light Snow
1:35 PM 26.6 °F 12.4 °F 17.6 °F 69% 30.04 in 9.0 mi WNW 21.9 mph 27.6 mph N/A   Overcast
1:55 PM 26.6 °F 12.4 °F 15.8 °F 64% 30.04 in 8.0 mi WNW 21.9 mph 27.6 mph N/A   Overcast
2:15 PM 26.6 °F 11.7 °F 15.8 °F 64% 30.03 in 10.0 mi WNW 24.2 mph - N/A   Overcast
2:35 PM 26.6 °F 12.7 °F 15.8 °F 64% 30.03 in 10.0 mi WNW 20.7 mph 27.6 mph N/A Snow Light Snow
2:55 PM 26.6 °F 12.7 °F 14.0 °F 59% 30.03 in 10.0 mi WNW 20.7 mph 28.8 mph N/A   Overcast
3:15 PM 26.6 °F 12.4 °F 15.8 °F 64% 30.04 in 10.0 mi WNW 21.9 mph 29.9 mph N/A   Overcast
3:35 PM 26.6 °F 13.8 °F 15.8 °F 64% 30.04 in 10.0 mi WNW 17.3 mph 26.5 mph N/A   Overcast
3:55 PM 26.6 °F 12.4 °F 15.8 °F 64% 30.04 in 10.0 mi WNW 21.9 mph - N/A   Overcast
4:15 PM 26.6 °F 12.0 °F 17.6 °F 69% 30.04 in 10.0 mi West 23.0 mph - N/A   Overcast
4:35 PM 24.8 °F 9.3 °F 17.6 °F 74% 30.04 in 10.0 mi West 24.2 mph 33.4 mph N/A   Overcast
4:55 PM 24.8 °F 9.6 °F 15.8 °F 69% 30.04 in 10.0 mi West 23.0 mph 29.9 mph N/A   Overcast
5:15 PM 24.8 °F 10.3 °F 15.8 °F 69% 30.04 in 10.0 mi West 20.7 mph - N/A   Overcast
5:35 PM 24.8 °F 10.3 °F 15.8 °F 69% 30.04 in 10.0 mi WNW 20.7 mph 27.6 mph N/A   Overcast
5:55 PM 24.8 °F 9.0 °F 15.8 °F 69% 30.03 in 10.0 mi WNW 25.3 mph - N/A   Overcast
6:15 PM 24.8 °F 11.1 °F 15.8 °F 69% 30.03 in 10.0 mi WNW 18.4 mph 27.6 mph N/A   Overcast
6:35 PM 24.8 °F 11.9 °F 15.8 °F 69% 30.04 in 10.0 mi WNW 16.1 mph 24.2 mph N/A   Overcast
6:55 PM 24.8 °F 10.7 °F 15.8 °F 69% 30.04 in 10.0 mi WNW 19.6 mph - N/A   Overcast
7:15 PM 23.0 °F 7.6 °F 14.0 °F 68% 30.04 in 10.0 mi WNW 21.9 mph 27.6 mph N/A   Unknown
7:35 PM 23.0 °F 8.0 °F 15.8 °F 74% 30.04 in 10.0 mi WNW 20.7 mph 27.6 mph N/A   Overcast
7:55 PM 23.0 °F 9.2 °F 14.0 °F 68% 30.05 in 10.0 mi WNW 17.3 mph 27.6 mph N/A   Overcast
8:15 PM 23.0 °F 8.0 °F 14.0 °F 68% 30.05 in 10.0 mi WNW 20.7 mph - N/A   Overcast
8:35 PM 23.0 °F 7.6 °F 14.0 °F 68% 30.05 in 10.0 mi WNW 21.9 mph 28.8 mph N/A   Overcast
8:55 PM 23.0 °F 8.3 °F 14.0 °F 68% 30.04 in 10.0 mi WNW 19.6 mph - N/A   Overcast
9:15 PM 23.0 °F 8.3 °F 14.0 °F 68% 30.05 in 10.0 mi WNW 19.6 mph - N/A   Overcast
9:35 PM 23.0 °F 9.2 °F 14.0 °F 68% 30.05 in 9.0 mi West 17.3 mph 25.3 mph N/A Snow Light Snow
9:55 PM 23.0 °F 8.7 °F 14.0 °F 68% 30.04 in 10.0 mi WNW 18.4 mph - N/A   Overcast
10:15 PM 23.0 °F 8.7 °F 14.0 °F 68% 30.04 in 10.0 mi WNW 18.4 mph - N/A   Overcast
10:35 PM 23.0 °F 10.1 °F 12.2 °F 63% 30.04 in 10.0 mi WNW 15.0 mph 25.3 mph N/A   Overcast
10:55 PM 23.0 °F 7.6 °F 12.2 °F 63% 30.04 in 10.0 mi WNW 21.9 mph - N/A   Overcast
11:15 PM 21.2 °F 6.8 °F 12.2 °F 68% 30.04 in 10.0 mi WNW 17.3 mph 25.3 mph N/A   Overcast
11:35 PM 21.2 °F 6.4 °F 12.2 °F 68% 30.04 in 10.0 mi WNW 18.4 mph 25.3 mph N/A   Overcast
11:55 PM 21.2 °F 7.3 °F 12.2 °F 68% 30.03 in 10.0 mi WNW 16.1 mph 23.0 mph N/A   Overcast